Home > Weather > Bathurst > Past weeks

Flag for Canada Past Weather in Bathurst, New Brunswick, Canada — Yesterday and Last 2 Weeks

Now
55 °F

Fog.


Feels Like: 55 °F
Forecast: 60 / 68 °F
Wind: No wind

Location: Bathurst Airport

Current Time: Jul 2, 2016 at 2:41:25 AM

Latest Report: Jul 2, 2016 at 2:00 AM


Visibility: 6 mi

Pressure: 29.88 "Hg

Humidity: 94%

Dew Point: 54 °F

Location of BathurstLocation

Past Weather in Bathurst — Graph

°F

Bathurst Temperature Yesterday

Maximum temperature yesterday: 84 °F (at 2:00 PM)
Minimum temperature yesterday: 54 °F (at 5:00 AM)
Average temperature yesterday: 69 °F

High & Low Weather Summary for the Past Weeks

 TemperatureHumidityPressure
High91 °F (Jun 20, 2:00 PM)100% (Jun 17, 4:00 AM)30.16 "Hg (Jun 17, 4:00 AM)
Low39 °F (Jun 17, 5:00 AM)20% (Jun 18, 3:00 PM)29.52 "Hg (Jun 21, 3:00 PM)
Average67 °F63%29.90 "Hg
* Reported Jun 17 1:00 AM — Jul 2 1:00 AM, Bathurst, Weather by CustomWeather, © 2016

Note: Actual official high and low records may vary slightly from our data, if they occured in-between our weather recording intervals... More about our weather records

Advertising

Bathurst Weather History for the Previous 24 Hours

Scroll right to see more
 ConditionsComfort  
Time TempWeatherWind HumidityBarometerVisibility
1:00 AM
Sat, Jul 2
57 °FFog.No wind94%29.90 "Hg6 mi
12:00 AM59 °FClear.2 mph94%29.91 "Hg7 mi
11:00 PM
Fri, Jul 1
61 °FClear.3 mph94%29.92 "Hg15 mi
10:00 PM63 °FPassing clouds.5 mph88%29.91 "Hg15 mi
9:00 PM64 °FScattered clouds.3 mph83%29.91 "Hg15 mi
8:00 PM70 °FScattered clouds.8 mph73%29.91 "Hg15 mi
7:00 PM81 °FScattered clouds.9 mph45%29.90 "Hg15 mi
6:00 PM79 °FScattered clouds.9 mph48%29.90 "Hg15 mi
5:00 PM84 °FScattered clouds.9 mph27%29.91 "Hg15 mi
4:00 PM84 °FPassing clouds.9 mph29%29.92 "Hg15 mi
3:00 PM84 °FPassing clouds.10 mph31%29.92 "Hg15 mi
2:00 PM84 °FPassing clouds.10 mph35%29.92 "Hg15 mi
1:00 PM82 °FPassing clouds.10 mph45%29.94 "Hg15 mi
12:00 PM81 °FPassing clouds.9 mph51%29.95 "Hg15 mi
11:00 AM77 °FPassing clouds.5 mph57%29.96 "Hg15 mi
10:00 AM73 °FSunny.3 mph61%29.97 "Hg15 mi
9:00 AM68 °FSunny.No wind69%29.97 "Hg15 mi
8:00 AM61 °FSunny.2 mph83%29.96 "Hg15 mi
7:00 AM57 °FPassing clouds.2 mph88%29.95 "Hg15 mi
6:00 AM54 °FPassing clouds.2 mph94%29.95 "Hg15 mi
5:00 AM54 °FPassing clouds.2 mph94%29.93 "Hg15 mi
4:00 AM55 °FClear.5 mph94%29.92 "Hg15 mi
3:00 AM55 °FClear.3 mph100%29.92 "Hg15 mi
2:00 AM57 °FClear.3 mph94%29.92 "Hg15 mi
Weather by CustomWeather, © 2016

See weather overviewHow to use our weather pages